| time (UTC) | temp F | wind direction | speed MPH | gust MPH | rain 1hr in | rain 24hr in | rain mn in | humidity % | barometer mb |
| 20260905222238 | 61 | 290 | 5.0 | 0.0 | 0.00 | 0.00 | 0.00 | 55 | |
| 20260905211833 | 63 | 290 | 5.0 | 0.0 | 0.00 | 0.00 | 0.00 | 51 | |
| 20260905201834 | 63 | 280 | 5.0 | 0.0 | 0.00 | 0.00 | 0.00 | 51 | |
| 20260905192152 | 64 | 290 | 7.0 | 0.0 | 0.00 | 0.00 | 0.00 | 48 | |
| 20260905181852 | 66 | 310 | 7.0 | 0.0 | 0.00 | 0.00 | 0.00 | 45 | |
| 20260905171851 | 70 | 310 | 9.0 | 0.0 | 0.00 | 0.00 | 0.00 | 40 | |
| 20260905162327 | 72 | 300 | 12.0 | 0.0 | 0.00 | 0.00 | 0.00 | 37 | |
| 20260905151744 | 72 | 300 | 9.0 | 0.0 | 0.00 | 0.00 | 0.00 | 40 | |
| 20260905141744 | 73 | 300 | 12.0 | 0.0 | 0.00 | 0.00 | 0.00 | 38 | |
| 20260905132038 | 72 | 270 | 7.0 | 0.0 | 0.00 | 0.00 | 0.00 | 43 | |
| 20260905121946 | 72 | 270 | 9.0 | 0.0 | 0.00 | 0.00 | 0.00 | 43 | |
| 20260905111920 | 72 | 270 | 7.0 | 0.0 | 0.00 | 0.00 | 0.00 | 49 | |
| 20260905102256 | 68 | 260 | 7.0 | 0.0 | 0.00 | 0.00 | 0.00 | 52 | |
| 20260905091845 | 64 | 250 | 7.0 | 0.0 | 0.00 | 0.00 | 0.00 | 63 | |
| 20260905081839 | 63 | 260 | 5.0 | 0.0 | 0.00 | 0.00 | 0.00 | 72 | |
| 20260905072140 | 61 | 0 | 5.0 | 0.0 | 0.00 | 0.00 | 0.00 | 77 | |
| 20260905061840 | 59 | 220 | 5.0 | 0.0 | 0.00 | 0.00 | 0.00 | 87 | |
| 20260905051838 | 57 | 0 | 2.0 | 0.0 | 0.00 | 0.00 | 0.00 | 87 | |
| 20260905042241 | 57 | 210 | 5.0 | 0.0 | 0.00 | 0.00 | 0.00 | 87 | |
| 20260905031840 | 61 | 260 | 7.0 | 0.0 | 0.00 | 0.00 | 0.00 | 72 | |
| 20260905021840 | 61 | 290 | 5.0 | 0.0 | 0.00 | 0.00 | 0.00 | 72 | |
| 20260905012140 | 64 | 290 | 7.0 | 0.0 | 0.00 | 0.00 | 0.00 | 63 | |
| 20260905001853 | 66 | 300 | 7.0 | 0.0 | 0.00 | 0.00 | 0.00 | 59 | |
| 20260904231925 | 64 | 360 | 7.0 | 0.0 | 0.00 | 0.00 | 0.00 | 67 |